{"data":{"norad_id":67635,"intl_designator":"2026-020U","name":"STARLINK-36627","alt_names":[],"object_type":"PAYLOAD","status":"ACTIVE","operator":null,"country":"US","launch_date":"2026-01-30","launch_site_code":"AFETR","launch_vehicle":null,"mission":null,"orbit_class":"UNKNOWN","rcs_meters":null,"size_class":null,"mass_kg":null,"dimensions":null,"purposes":["comms"],"wikipedia_slug":null,"has_3d_model":false,"image_url":null,"decayed_at":null,"tle_current":{"epoch":"2026-05-25T02:48:59.425344Z","epoch_age_seconds":65024,"freshness":"FRESH","line1":"1 67635U 26020U   26145.11735446  .00016169  00000+0  59534-3 0  9997","line2":"2 67635  43.0039  68.0327 0001477 260.4795  99.5889 15.27606384 17802","mean_motion":15.27606384,"eccentricity":0.0001477,"inclination_deg":43.0039,"raan_deg":68.0327,"arg_perigee_deg":260.4795,"mean_anomaly_deg":99.5889,"bstar":0.00059534,"rev_number":1780,"period_min":94.265120588813,"perigee_km":481.95670847136,"apogee_km":483.98347950693,"semimajor_km":6861.1070939891,"source":"CELESTRAK","updated_at":"2026-05-25T13:38:21.653121Z"}}}